Volver al catálogo

SL-12 R/B

AUX MOTOR

ActivoHEO
NORAD 13609·ROCKET BODY·🇷🇺 Russia

Lanzado Oct 12, 1982 desde Baikonur Cosmodrome

Loading…

Próximos Pases (próximas 24 horas)

TLE

ActualizadoSource: Space-Track

Época: Sep 14, 2026, 23:30 UTC

1 13609U 82100G   26257.97916704  .00010798  00000-0  11682-2 0  9990
2 13609  52.0039 255.4188 4773515  48.0080 343.9074  6.03170128820014

Sigue SL-12 R/B en tiempo real con AllMySat

Download on the App Store